| time (UTC) | temp F | wind direction | speed knots | gust knots | rain 1hr in | rain 24hr in | rain mn in | humidity % | barometer mb |
| 20260505164100 | 49 | 14 | 6.1 | 8.7 | 0.02 | 0.07 | 0.07 | 10 | 1009.9 |
| 20260505163105 | 50 | 12 | 6.1 | 7.8 | 0.01 | 0.06 | 0.06 | 10 | 1009.9 |
| 20260505162059 | 50 | 15 | 5.2 | 8.7 | 0.01 | 0.06 | 0.06 | 10 | 1009.9 |
| 20260505161100 | 50 | 21 | 7.8 | 10.4 | 0.00 | 0.06 | 0.06 | 10 | 1010.0 |
| 20260505152101 | 49 | 20 | 7.0 | 9.6 | 0.00 | 0.06 | 0.06 | 10 | 1010.2 |
| 20260505151056 | 50 | 26 | 6.1 | 8.7 | 0.00 | 0.06 | 0.06 | 10 | 1010.2 |
| 20260505124059 | 51 | 14 | 7.0 | 11.3 | 0.00 | 0.07 | 0.06 | 10 | 1010.8 |
| 20260505121057 | 52 | 4 | 5.2 | 8.7 | 0.00 | 0.07 | 0.06 | 10 | 1010.7 |
| 20260505120057 | 52 | 10 | 5.2 | 8.7 | 0.00 | 0.07 | 0.06 | 10 | 1010.8 |
| 20260505115055 | 51 | 352 | 5.2 | 7.8 | 0.00 | 0.07 | 0.06 | 10 | 1010.8 |
| 20260505113058 | 51 | 8 | 6.1 | 8.7 | 0.00 | 0.07 | 0.06 | 10 | 1011.0 |
| 20260505112058 | 52 | 18 | 5.2 | 7.0 | 0.00 | 0.07 | 0.06 | 10 | 1011.1 |
| 20260505111059 | 52 | 359 | 5.2 | 9.6 | 0.00 | 0.07 | 0.06 | 10 | 1011.1 |
| 20260505102055 | 51 | 6 | 4.3 | 7.8 | 0.00 | 0.07 | 0.06 | 10 | 1011.4 |
| 20260505101059 | 52 | 19 | 5.2 | 8.7 | 0.00 | 0.07 | 0.06 | 10 | 1011.3 |
| 20260505100056 | 52 | 21 | 6.1 | 7.8 | 0.00 | 0.07 | 0.06 | 10 | 1011.3 |
| 20260505095058 | 51 | 14 | 6.1 | 7.8 | 0.00 | 0.07 | 0.06 | 10 | 1011.4 |
| 20260505094058 | 52 | 14 | 5.2 | 9.6 | 0.01 | 0.07 | 0.06 | 10 | 1011.4 |
| 20260505093057 | 52 | 18 | 4.3 | 7.8 | 0.01 | 0.07 | 0.06 | 10 | 1011.4 |
| 20260505092057 | 51 | 15 | 5.2 | 7.8 | 0.01 | 0.07 | 0.06 | 10 | 1011.4 |
| 20260505091058 | 51 | 9 | 4.3 | 6.1 | 0.01 | 0.07 | 0.06 | 10 | 1011.4 |
| 20260505090055 | 51 | 5 | 5.2 | 7.0 | 0.01 | 0.07 | 0.06 | 10 | 1011.4 |
| 20260505085057 | 51 | 7 | 4.3 | 7.8 | 0.01 | 0.07 | 0.06 | 10 | 1011.4 |
| 20260505084057 | 51 | 6 | 4.3 | 7.8 | 0.02 | 0.07 | 0.06 | 10 | 1011.4 |
| 20260505083057 | 51 | 5 | 4.3 | 7.0 | 0.01 | 0.06 | 0.05 | 10 | 1011.5 |
| 20260505082058 | 51 | 354 | 5.2 | 7.0 | 0.01 | 0.06 | 0.05 | 10 | 1011.5 |
| 20260505080057 | 52 | 355 | 5.2 | 7.8 | 0.01 | 0.06 | 0.05 | 10 | 1011.6 |
| 20260505075056 | 52 | 3 | 5.2 | 7.0 | 0.01 | 0.06 | 0.05 | 10 | 1011.6 |
| 20260505074058 | 52 | 4 | 5.2 | 7.0 | 0.01 | 0.06 | 0.05 | 10 | 1011.5 |
| 20260505073058 | 52 | 1 | 4.3 | 7.0 | 0.01 | 0.06 | 0.04 | 10 | 1011.5 |
| 20260505072056 | 52 | 2 | 3.5 | 5.2 | 0.01 | 0.06 | 0.04 | 10 | 1011.5 |
| 20260505071059 | 52 | 29 | 4.3 | 6.1 | 0.01 | 0.06 | 0.04 | 10 | 1011.6 |
| 20260505070052 | 52 | 31 | 4.3 | 6.1 | 0.01 | 0.06 | 0.04 | 10 | 1011.7 |
| 20260505065057 | 52 | 28 | 4.3 | 7.0 | 0.01 | 0.06 | 0.04 | 10 | 1011.7 |
| 20260505064054 | 53 | 10 | 4.3 | 7.0 | 0.01 | 0.06 | 0.04 | 10 | 1011.7 |
| 20260505063055 | 53 | 5 | 4.3 | 6.1 | 0.01 | 0.06 | 0.04 | 10 | 1011.7 |
| 20260505062052 | 53 | 3 | 3.5 | 7.8 | 0.00 | 0.05 | 0.03 | 10 | 1011.7 |
| 20260505061054 | 53 | 3 | 4.3 | 7.0 | 0.01 | 0.05 | 0.03 | 10 | 1011.6 |
| 20260505060055 | 53 | 357 | 4.3 | 7.0 | 0.01 | 0.05 | 0.03 | 10 | 1011.6 |
| 20260505055055 | 53 | 353 | 5.2 | 7.8 | 0.02 | 0.05 | 0.03 | 10 | 1011.6 |
| 20260505054058 | 53 | 352 | 4.3 | 6.1 | 0.02 | 0.05 | 0.03 | 10 | 1011.6 |
| 20260505053055 | 53 | 349 | 3.5 | 5.2 | 0.03 | 0.05 | 0.03 | 10 | 1011.6 |
| 20260505052054 | 53 | 341 | 2.6 | 3.5 | 0.03 | 0.05 | 0.03 | 10 | 1011.6 |
| 20260505051057 | 53 | 341 | 2.6 | 3.5 | 0.03 | 0.05 | 0.03 | 10 | 1011.5 |
| 20260505041054 | 52 | 260 | 0.9 | 1.7 | 0.00 | 0.02 | 0.00 | 10 | 1011.7 |
| 20260505040056 | 52 | 253 | 1.7 | 2.6 | 0.00 | 0.02 | 0.00 | 10 | 1011.8 |
| 20260505035056 | 52 | 253 | 1.7 | 2.6 | 0.00 | 0.02 | 0.00 | 10 | 1011.9 |
| 20260505034056 | 52 | 220 | 2.6 | 3.5 | 0.00 | 0.02 | 0.00 | 10 | 1011.9 |
| 20260505033057 | 52 | 250 | 1.7 | 2.6 | 0.00 | 0.02 | 0.00 | 10 | 1011.9 |
| 20260505032055 | 52 | 249 | 1.7 | 1.7 | 0.00 | 0.02 | 0.00 | 10 | 1012.0 |
| 20260505031056 | 52 | 155 | 0.9 | 1.7 | 0.00 | 0.02 | 0.00 | 10 | 1012.2 |
| 20260505030055 | 52 | 149 | 1.7 | 1.7 | 0.00 | 0.02 | 0.00 | 10 | 1012.3 |
| 20260505025056 | 52 | 129 | 1.7 | 2.6 | 0.00 | 0.02 | 0.00 | 10 | 1012.5 |
| 20260505024058 | 52 | 120 | 1.7 | 3.5 | 0.00 | 0.02 | 0.00 | 10 | 1012.5 |
| 20260505023058 | 52 | 76 | 1.7 | 3.5 | 0.00 | 0.02 | 0.00 | 10 | 1012.4 |
| 20260505022055 | 52 | 328 | 0.0 | 0.0 | 0.00 | 0.02 | 0.00 | 10 | 1012.4 |
| 20260505020057 | 52 | 331 | 0.0 | 1.7 | 0.00 | 0.02 | 0.00 | 10 | 1012.4 |
| 20260505015056 | 52 | 335 | 0.9 | 2.6 | 0.00 | 0.02 | 0.00 | 10 | 1012.3 |
| 20260505014056 | 52 | 330 | 0.9 | 1.7 | 0.00 | 0.02 | 0.00 | 10 | 1012.3 |
| 20260505013053 | 52 | 332 | 0.9 | 1.7 | 0.00 | 0.02 | 0.00 | 10 | 1012.4 |
| 20260505011054 | 51 | 22 | 0.0 | 0.0 | 0.00 | 0.02 | 0.00 | 10 | 1012.5 |
| 20260505005059 | 51 | 339 | 0.9 | 1.7 | 0.00 | 0.02 | 0.00 | 10 | 1012.6 |
| 20260505004055 | 51 | 276 | 1.7 | 1.7 | 0.00 | 0.02 | 0.00 | 10 | 1012.7 |
| 20260505003058 | 51 | 260 | 1.7 | 2.6 | 0.00 | 0.02 | 0.00 | 10 | 1012.7 |
| 20260505002054 | 51 | 215 | 1.7 | 2.6 | 0.00 | 0.02 | 0.00 | 10 | 1012.9 |
| 20260505001057 | 51 | 158 | 1.7 | 1.7 | 0.00 | 0.02 | 0.00 | 10 | 1013.1 |
| 20260504235107 | 51 | 165 | 0.9 | 1.7 | 0.00 | 0.02 | 0.00 | 10 | 1013.2 |
| 20260504232105 | 50 | 208 | 0.9 | 1.7 | 0.00 | 0.02 | 0.00 | 10 | 1013.4 |
| 20260504231106 | 50 | 189 | 0.9 | 0.9 | 0.00 | 0.02 | 0.00 | 10 | 1013.4 |
| 20260504225109 | 50 | 228 | 0.0 | 0.0 | 0.00 | 0.02 | 0.00 | 10 | 1013.6 |
| 20260504224107 | 51 | 220 | 0.9 | 0.9 | 0.00 | 0.02 | 0.00 | 10 | 1013.6 |
| 20260504221107 | 51 | 171 | 0.0 | 0.0 | 0.00 | 0.02 | 0.00 | 99 | 1013.9 |
| 20260504220109 | 51 | 183 | 0.9 | 1.7 | 0.00 | 0.02 | 0.00 | 99 | 1014.0 |
| 20260504215112 | 51 | 203 | 0.0 | 0.9 | 0.00 | 0.02 | 0.02 | 99 | 1014.0 |
| 20260504214115 | 51 | 187 | 0.9 | 0.9 | 0.00 | 0.02 | 0.02 | 99 | 1014.1 |
| 20260504213115 | 51 | 153 | 1.7 | 1.7 | 0.00 | 0.02 | 0.02 | 99 | 1014.2 |
| 20260504212115 | 51 | 157 | 0.9 | 0.9 | 0.00 | 0.02 | 0.02 | 99 | 1014.2 |
| 20260504211109 | 51 | 161 | 1.7 | 1.7 | 0.00 | 0.02 | 0.02 | 99 | 1014.2 |
| 20260504210112 | 51 | 150 | 1.7 | 1.7 | 0.00 | 0.02 | 0.02 | 98 | 1014.3 |
| 20260504205112 | 51 | 149 | 1.7 | 1.7 | 0.00 | 0.02 | 0.02 | 98 | 1014.3 |
| 20260504204112 | 52 | 171 | 1.7 | 3.5 | 0.00 | 0.02 | 0.02 | 98 | 1014.4 |
| 20260504203112 | 52 | 169 | 2.6 | 2.6 | 0.00 | 0.02 | 0.02 | 98 | 1014.4 |
| 20260504202127 | 52 | 169 | 2.6 | 2.6 | 0.00 | 0.02 | 0.02 | 98 | 1014.3 |
| 20260504201116 | 52 | 161 | 1.7 | 2.6 | 0.00 | 0.02 | 0.02 | 98 | 1014.3 |
| 20260504200112 | 52 | 155 | 2.6 | 2.6 | 0.00 | 0.02 | 0.02 | 98 | 1014.3 |
| 20260504195110 | 52 | 164 | 2.6 | 3.5 | 0.00 | 0.02 | 0.02 | 97 | 1014.1 |
| 20260504194108 | 52 | 156 | 2.6 | 2.6 | 0.00 | 0.02 | 0.02 | 97 | 1014.0 |
| 20260504193107 | 52 | 141 | 2.6 | 2.6 | 0.00 | 0.02 | 0.02 | 97 | 1014.0 |
| 20260504192110 | 52 | 148 | 1.7 | 2.6 | 0.00 | 0.02 | 0.02 | 97 | 1013.9 |
| 20260504191111 | 53 | 143 | 2.6 | 3.5 | 0.00 | 0.02 | 0.02 | 96 | 1013.8 |
| 20260504190110 | 53 | 131 | 1.7 | 3.5 | 0.00 | 0.02 | 0.02 | 96 | 1013.9 |
| 20260504185110 | 53 | 127 | 1.7 | 2.6 | 0.00 | 0.02 | 0.02 | 95 | 1013.8 |
| 20260504184105 | 54 | 121 | 2.6 | 3.5 | 0.00 | 0.02 | 0.02 | 94 | 1013.7 |
| 20260504182102 | 56 | 149 | 1.7 | 2.6 | 0.00 | 0.02 | 0.02 | 92 | 1013.4 |
| 20260504181107 | 56 | 156 | 2.6 | 4.3 | 0.00 | 0.02 | 0.02 | 92 | 1013.5 |
| 20260504175104 | 56 | 156 | 4.3 | 7.0 | 0.00 | 0.02 | 0.02 | 92 | 1013.7 |
| 20260504174103 | 57 | 152 | 4.3 | 6.1 | 0.00 | 0.02 | 0.02 | 92 | 1013.6 |
| 20260504173106 | 57 | 139 | 2.6 | 5.2 | 0.00 | 0.02 | 0.02 | 93 | 1013.6 |
| 20260504172103 | 57 | 143 | 2.6 | 4.3 | 0.00 | 0.02 | 0.02 | 93 | 1013.7 |
| 20260504171104 | 57 | 129 | 2.6 | 3.5 | 0.00 | 0.02 | 0.02 | 92 | 1013.7 |